Terug naar catalogus

ETS 8

ActiefWetenschapGEO
NORAD 29656·PAYLOAD·🇯🇵 Japan

Gelanceerd Dec 18, 2006 vanaf Tanegashima Space Center

Loading…

TLE

VersSource: Space-Track

Epoch: Sep 14, 2026, 04:18 UTC

1 29656U 06059A   26257.17983054 -.00000261  00000-0  00000-0 0  9997
2 29656  11.7251  38.5011 0005522 174.9817   8.1188  0.99009756 71915

Volg ETS 8 in realtime met AllMySat

Download on the App Store